{"data":{"norad_id":53425,"intl_designator":"2022-097AP","name":"STARLINK-4531","alt_names":[],"object_type":"PAYLOAD","status":"ACTIVE","operator":null,"country":"US","launch_date":"2022-08-10","launch_site_code":"AFETR","launch_vehicle":null,"mission":null,"orbit_class":"UNKNOWN","rcs_meters":null,"size_class":null,"mass_kg":null,"dimensions":null,"purposes":["comms"],"wikipedia_slug":null,"has_3d_model":false,"image_url":null,"decayed_at":null,"tle_current":{"epoch":"2026-09-19T18:57:40.196448Z","epoch_age_seconds":136799,"freshness":"FRESH","line1":"1 53425U 22097AP  26262.79004857 -.00000077  00000+0  92723-5 0  9999","line2":"2 53425  53.1593 307.7927 0001310  70.4379 289.6763 15.31699753228122","mean_motion":15.31699753,"eccentricity":0.000131,"inclination_deg":53.1593,"raan_deg":307.7927,"arg_perigee_deg":70.4379,"mean_anomaly_deg":289.6763,"bstar":9.2723e-6,"rev_number":22812,"period_min":94.013203121539,"perigee_km":469.84352853706,"apogee_km":471.63793450272,"semimajor_km":6848.8777315199,"source":"CELESTRAK","updated_at":"2026-09-20T09:00:40.230748Z"}}}